This is the latest recevied weather packets stored in our database for station/object OK2ILA-6. If no packets are shown the sender has not sent any weather packets the latest 10 day(s).
| Time | Temp. | Humidity | Pressure | Rain* | Wind** | Luminosity | Snow |
|---|---|---|---|---|---|---|---|
| 1777638603 | 20° C | 40% | 1025.2 hPa | - | - | - | - |
| 1777638003 | 20° C | 40% | 1025.4 hPa | - | - | - | - |
| 1777637403 | 19.44° C | 40% | 1025.4 hPa | - | - | - | - |
| 1777636803 | 20° C | 40% | 1025.5 hPa | - | - | - | - |
| 1777636203 | 19.44° C | 40% | 1025.6 hPa | - | - | - | - |
| 1777635603 | 19.44° C | 40% | 1025.7 hPa | - | - | - | - |
| 1777635003 | 19.44° C | 39% | 1025.6 hPa | - | - | - | - |
| 1777634403 | 19.44° C | 40% | 1025.8 hPa | - | - | - | - |
| 1777633803 | 18.89° C | 40% | 1025.9 hPa | - | - | - | - |
| 1777633202 | 18.89° C | 40% | 1026.1 hPa | - | - | - | - |
| 1777632603 | 19.44° C | 40% | 1026 hPa | - | - | - | - |
| 1777632003 | 18.89° C | 41% | 1026.2 hPa | - | - | - | - |
| 1777631403 | 18.33° C | 40% | 1026.2 hPa | - | - | - | - |
| 1777630803 | 18.89° C | 40% | 1026.2 hPa | - | - | - | - |
| 1777630202 | 18.33° C | 40% | 1026.4 hPa | - | - | - | - |
| 1777629603 | 18.89° C | 39% | 1026.4 hPa | - | - | - | - |
| 1777629003 | 17.78° C | 44% | 1026.6 hPa | - | - | - | - |
| 1777628403 | 17.78° C | 42% | 1026.7 hPa | - | - | - | - |
| 1777627803 | 17.78° C | 41% | 1026.8 hPa | - | - | - | - |
| 1777627202 | 17.22° C | 42% | 1026.9 hPa | - | - | - | - |
| 1777626603 | 16.67° C | 42% | 1026.9 hPa | - | - | - | - |
| 1777626003 | 16.11° C | 42% | 1027 hPa | - | - | - | - |
| 1777625403 | 16.11° C | 42% | 1027.1 hPa | - | - | - | - |
| 1777624803 | 15.56° C | 42% | 1027.1 hPa | - | - | - | - |
| 1777624202 | 15.56° C | 44% | 1027 hPa | - | - | - | - |
* Rain since midnight (hover to see other rain measurements)
** Current wind speed in m/s (hover to see current wind gust speed)